CAPE
152 180 286 342 354 510 660 956 1014 1085 1114 1101 1090 1146 1072 1324 833 863 1544 1928 2154 2418 2183 1200 1853 2554 2772 3211 3154 2723 2708 1903 1631 1423 1301 1212 1181 1330 1457 1441 1425 1468 1335
113 126 226 243 292 522 655 765 775 1052 1112 1083 1180 1082 1323 1318 1379 1461 1930 2141 1886 2319 2146 1620 2080 2276 2429 3067 3103 3039 2213 1687 1778 2245 1270 1290 1229 1135 1078 1327 1401 1381 1111
78 126 195 223 280 397 579 651 680 898 1021 1079 1018 1180 1310 1414 1495 2061 2561 2012 2040 2180 2233 1820 1950 1985 2366 2326 2894 2789 2726 1612 1302 1666 2289 1463 985 1313 993 1075 838 958 972
39 112 166 239 287 287 384 446 530 656 819 1129 992 1275 1049 1139 1565 2365 2220 2017 2082 2018 2123 2030 1975 2284 2105 2784 2667 2373 2498 2333 1526 1209 941 1264 1423 1134 1040 1074 973 873 633
0 16 105 210 265 218 249 282 414 481 654 933 1070 1504 1145 1046 1373 1395 1661 1862 2058 1954 1825 2158 2070 2229 1884 2456 2511 2451 2692 1868 1787 1407 1018 767 479 584 563 420 273 558 295
0 3 51 195 229 176 174 203 312 415 514 810 1248 1344 1338 1186 1177 1378 1271 1470 1590 1656 2100 1956 2327 2345 2031 2177 1997 2293 2452 2364 2248 1479 1318 981 790 797 404 366 721 893 894
0 3 132 178 224 190 208 228 260 334 373 621 1060 1229 1345 1404 1491 1498 1151 1361 1260 1343 1896 2087 2085 2542 2111 2054 2150 2374 2278 2178 1993 2224 1124 847 917 663 349 468 766 946 978
0 10 122 187 242 239 285 249 258 326 360 574 1006 1227 1338 1110 1139 1342 1149 1100 1135 1215 1514 1562 1718 1687 1907 2001 2240 1933 1793 1712 1795 2049 2023 1236 764 724 698 897 994 694 897
39 24 93 184 256 277 331 312 316 377 369 529 940 1191 1201 1213 1030 1220 1141 878 1013 948 1002 1169 1384 1693 1720 1857 1906 1515 1928 1945 1970 1626 1788 1815 1258 684 864 1230 1071 1095 493
35 33 46 149 192 248 310 327 351 355 330 437 771 924 1000 1154 1153 1149 1051 959 870 779 835 887 1079 1381 1657 1798 1986 2131 1911 2060 1794 1377 1925 2238 1571 1406 1212 1185 1318 1146 1356
135 107 44 132 230 199 238 265 372 364 316 378 538 818 875 965 982 984 1054 1156 900 610 514 780 855 1223 1374 1540 1827 2088 1915 1986 1827 1689 1899 1928 1826 1315 1442 1607 1793 1601 1537
171 113 80 138 234 257 261 246 363 404 364 412 507 549 699 804 784 940 942 1072 1038 808 760 380 447 542 997 1273 1564 1611 1311 1705 1649 1583 1768 1817 1270 1799 1888 1741 2161 1906 1793
120 104 99 115 194 239 257 363 446 428 429 455 482 486 535 638 653 811 892 878 851 714 409 129 225 310 297 912 1430 1738 1496 1248 1522 1650 1624 1502 1604 1964 1609 1953 1847 1164 1756
117 97 142 213 263 393 441 559 609 230 648 516 501 554 586 571 618 737 910 887 805 704 399 266 107 255 701 693 1002 1423 1374 1468 1440 1541 1482 1476 1569 1751 1808 1591 1975 1635 2034
247 238 317 287 327 480 520 461 575 380 387 779 472 476 1001 811 829 980 1062 1044 978 771 732 371 219 524 990 658 860 1049 1257 1499 1432 1206 1355 1426 976 412 1012 2031 1923 1879 2061
111 313 282 244 266 434 591 551 332 339 761 339 634 838 1112 1030 1126 1228 1340 1365 1276 1267 1003 720 559 585 472 179 142 67 472 705 982 521 791 1163 235 243 173 224 307 637 1715
284 213 166 204 400 314 328 786 885 897 662 920 831 840 802 779 418 588 1381 1010 1453 1495 1268 1003 900 623 126 203 149 96 13 317 577 950 1243 1093 199 131 311 77 126 180 198
291 238 236 147 135 169 190 217 314 531 363 507 292 265 564 430 273 205 200 160 997 525 1246 819 293 60 59 50 57 93 47 34 235 218 692 755 127 121 69 35 17 25 57
153 259 294 280 211 151 148 142 213 287 203 186 166 138 115 99 102 110 120 118 231 181 146 122 211 123 92 66 64 21 26 0 2 28 82 122 138 133 102 92 69 40 52
187 247 200 172 244 190 125 191 215 224 171 232 108 53 59 101 90 79 51 46 143 122 77 50 46 64 68 99 82 23 42 36 2 66 31 38 55 27 1 5 12 32 32
153 68 294 167 211 315 287 236 296 292 159 196 109 120 209 253 179 82 77 108 128 30 50 49 43 16 62 59 18 37 67 7 38 34 25 26 43 55 17 11 0 10 27
73 210 258 104 116 326 434 356 309 172 121 29 31 63 94 87 76 110 99 81 79 57 54 45 26 52 69 42 2 27 54 33 36 67 53 19 36 10 19 1 11 18 43
33 33 89 69 66 161 277 249 335 217 163 80 148 169 86 167 143 110 28 44 25 30 18 18 16 26 55 84 81 61 71 85 69 63 57 36 45 69 75 53 30 18 16
2 0 0 24 38 16 56 107 192 246 195 267 247 58 36 99 52 64 19 30 37 57 49 42 43 39 43 74 65 47 62 58 62 67 58 73 44 35 53 34 0 9 18
0 1 6 2 5 3 0 0 55 132 210 87 169 214 149 120 88 81 95 75 115 55 81 67 76 78 37 34 94 75 52 40 39 47 61 45 87 60 14 15 0 0 0
0 2 5 8 7 11 3 0 2 10 22 47 74 132 102 103 70 101 79 106 117 74 98 103 87 109 46 18 32 87 70 54 23 14 27 19 20 24 16 6 0 0 0
CIN
-24 -28 -20 -23 -31 -23 -18 -13 -21 -29 -29 -27 -16 -14 -9 -18 -26 -33 -28 -31 -27 -19 -39 -57 -46 -41 -19 -30 -33 -30 -34 -39 -84 -45 -51 -70 -94 -84 -88 -85 -75 -91 -126
-26 -42 -34 -29 -31 -25 -24 -21 -27 -34 -40 -33 -25 -16 -17 -14 -13 -15 -15 -17 -21 -23 -25 -50 -25 -38 -15 -21 -30 -33 -26 -54 -90 -17 -26 -8 -33 -69 -92 -107 -101 -117 -127
-27 -40 -40 -44 -36 -40 -31 -26 -31 -34 -39 -37 -41 -35 -30 -25 -14 -16 -8 -9 -16 -16 -25 -36 -29 -37 -30 -11 -24 -28 -34 -23 -83 -112 -18 -10 -5 -38 -97 -96 -111 -131 -109
-28 -38 -44 -52 -49 -58 -44 -31 -37 -37 -36 -32 -28 -23 -8 -3 -5 -9 -7 -13 -15 -13 -13 -22 -32 -27 -20 -14 -17 -21 -30 -38 -26 -74 -102 -125 -73 -16 -16 -63 -82 -122 -132
0 -46 -49 -60 -49 -57 -67 -53 -38 -38 -27 -32 -30 -17 -11 -6 -9 -17 -21 -24 -18 -14 -13 -14 -19 -21 -19 -18 -17 -18 -22 -31 -24 -30 -64 -113 -136 -152 -59 -30 -65 -81 -149
0 -20 -58 -58 -54 -62 -65 -52 -49 -44 -36 -32 -24 -23 -20 -23 -18 -21 -12 -9 -9 -8 -13 -15 -13 -17 -12 -14 -13 -18 -17 -21 -27 -39 -46 -34 -28 -28 -55 -45 -35 -31 -30
0 -25 -66 -62 -74 -86 -76 -64 -62 -46 -38 -25 -19 -25 -21 -24 -20 -20 -14 -15 -12 -16 -13 -20 -22 -11 -16 -14 -13 -13 -12 -14 -15 -25 -26 -47 -43 -62 -61 -42 -17 -14 -18
0 -36 -82 -79 -92 -97 -84 -84 -81 -58 -51 -29 -20 -27 -27 -15 -15 -16 -16 -18 -17 -18 -28 -21 -13 -7 -11 -12 -12 -5 -5 -13 -10 -12 -18 -27 -41 -54 -51 -27 -12 -1 -6
-114 -105 -87 -83 -94 -91 -107 -105 -94 -70 -66 -35 -29 -30 -30 -32 -20 -31 -42 -32 -53 -37 -47 -35 -20 -13 -11 -13 -10 -2 -4 -7 -5 -7 -13 -9 -15 -39 -40 -30 -26 -8 0
-174 -200 -190 -105 -108 -95 -105 -109 -102 -91 -74 -38 -27 -25 -28 -33 -30 -31 -38 -45 -48 -66 -56 -43 -28 -18 -8 -6 -6 -2 -3 -4 -1 -2 -7 -7 -5 -9 -15 -15 -18 -23 -5
-140 -157 -256 -147 -121 -121 -92 -116 -117 -106 -102 -69 -43 -24 -31 -39 -37 -32 -30 -29 -43 -77 -81 -55 -37 -19 -12 -8 -9 -7 -1 -2 -2 -3 -6 -3 -8 0 0 -2 -3 -2 -4
-129 -184 -223 -220 -149 -146 -128 -126 -130 -113 -106 -90 -83 -68 -42 -35 -31 -37 -38 -35 -39 -51 -51 -73 -67 -54 -22 -8 -10 -3 0 -2 0 -1 -3 -5 -4 -5 -4 -1 -2 -1 -1
-146 -178 -164 -186 -218 -172 -231 -148 -136 -121 -127 -110 -106 -97 -73 -45 -47 -40 -38 -47 -51 -55 -56 -91 -86 -61 -45 -21 -8 -8 -5 -3 -2 -2 -4 -7 -5 -5 0 -2 0 0 -1
-81 -127 -104 -113 -136 -153 -163 -136 -130 -247 -118 -124 -114 -88 -87 -74 -68 -66 -50 -37 -44 -49 -65 -75 -84 -62 -26 -18 -14 -8 -21 -17 -9 -12 -6 -7 -6 -7 -5 -3 -4 -2 -2
-74 -79 -80 -135 -144 -102 -108 -133 -114 -182 -165 -102 -138 -133 -62 -72 -56 -44 -50 -41 -30 -31 -27 -49 -68 -30 -8 -17 -15 -16 -18 -12 -13 -13 -14 -10 -34 -57 -28 -6 -8 -9 -1
-95 -104 -181 -200 -193 -79 -72 -76 -147 -167 -74 -148 -101 -64 -32 -50 -31 -32 -20 -26 -20 -14 -10 -20 -28 -24 -21 -23 -30 -37 -35 -23 -12 -28 -17 -12 -36 -74 -52 -76 -74 -58 -8
-119 -157 -195 -166 -41 -97 -46 -25 -40 -55 -70 -41 -41 -49 -13 -31 -79 -50 -2 -38 -12 -13 -13 -11 -7 -20 -54 -15 -11 -24 -42 -35 -23 -10 -2 -13 -30 -34 -52 -47 -57 -53 -69
-100 -88 -104 -43 -105 -76 -53 -43 -49 -32 -85 -77 -72 -54 -18 -23 -52 -37 -10 -6 -4 -35 -10 -13 -47 -43 -45 -35 -13 -7 -14 -69 -37 -52 -18 -13 -37 -23 -23 -28 -47 -47 -33
-187 -119 -95 -73 -57 -61 -19 -56 -102 -57 -108 -80 -73 -73 -53 -43 -42 -60 -32 0 0 -18 -42 -64 -28 -25 -36 -5 0 -1 -15 -2 -8 -66 -83 -43 -23 -16 -15 -26 -30 -33 -33
-131 -91 -127 -114 -48 -52 -46 -79 -46 -27 -54 -54 -45 -93 -57 -18 -1 -32 -80 0 -13 0 -21 -13 -22 -23 -20 0 0 -4 -3 -1 -1 -24 -53 -58 -63 -79 -2 -83 -55 -46 -35
-147 -210 -77 -145 -74 -30 -29 -29 -10 -4 -20 -18 -43 -2 -2 0 -10 -2 -3 -1 0 0 0 0 -1 0 0 -2 -1 0 0 -1 -10 -23 -30 -25 -22 0 -7 -7 0 -23 -13
-190 -104 -66 -151 -130 -17 -4 -1 0 -3 -13 -152 -81 -14 -16 -21 -17 -3 0 0 0 0 0 0 0 -1 0 -1 -39 -15 0 0 -5 -6 -4 -2 -5 -1 -8 -12 -17 -10 -16
-205 -195 -131 -134 -108 -36 -17 -18 -2 -16 -12 -21 -3 0 -13 -1 -1 -1 -54 -5 -5 -1 -15 -15 -2 -6 -22 -8 -24 -6 -18 -1 -1 -1 -3 -9 -5 -1 -14 -5 -1 0 -8
0 0 -1 -135 -106 -105 -55 -42 -15 -4 -10 -1 -2 -21 -32 -13 -13 -4 -3 -48 -2 0 -5 -24 -26 -7 0 0 -6 -7 -4 -4 -13 -32 -11 -5 -10 -22 0 -1 0 -8 -2
0 -1 0 0 -188 -57 0 0 -28 -21 -10 -25 -5 -4 -3 -1 0 0 -4 -4 -8 -9 -25 0 0 0 -2 0 0 0 -2 -5 -8 -2 -4 -5 0 0 -2 -5 0 0 0
0 0 -1 0 -13 -12 -6 -2 -7 -31 -52 -26 -11 0 0 0 -3 0 -6 -2 -9 -32 0 -52 0 0 0 0 0 0 0 -7 -40 -23 -18 -15 -4 -4 0 0 0 0 0
Wind_Speed
11 11 10 7 9 11 12 14 16 19 18 16 15 15 15 13 14 16 17 17 15 14 16 15 14 15 14 14 12 8 8 6 3 2 4 4 5 7 6 7 9 9 10
9 10 7 6 8 9 11 10 14 15 16 14 14 16 14 13 11 12 15 15 13 14 13 14 12 12 11 11 13 12 8 9 7 4 3 5 7 7 6 8 10 11 13
nan 10 7 7 7 9 9 9 9 10 12 12 11 13 13 12 10 11 10 12 12 11 13 12 11 10 9 8 10 10 7 6 7 8 5 3 5 8 8 10 12 14 15
nan 8 10 9 8 8 6 8 7 6 7 9 9 8 11 11 10 8 9 8 10 9 9 10 8 10 9 6 6 7 7 3 5 5 7 7 7 9 11 10 10 12 13
nan nan 8 12 10 6 5 5 5 5 6 7 8 6 8 9 9 6 5 5 5 8 8 7 5 5 6 5 6 7 7 7 6 4 3 4 6 7 8 7 8 11 12
nan nan nan 6 7 6 6 4 4 3 4 6 6 7 7 4 3 2 4 6 5 5 6 6 4 4 2 2 3 4 5 7 7 6 4 3 3 6 7 7 8 5 9
nan nan 4 4 3 2 5 4 4 5 3 4 5 4 3 2 1 2 2 1 3 4 3 4 4 4 2 1 2 2 2 3 4 3 2 2 2 2 3 3 4 5 7
nan nan 4 3 2 3 1 4 1 3 3 3 5 4 2 3 2 1 3 2 4 5 4 4 3 3 2 2 3 2 2 4 2 2 0 0 1 2 2 2 3 5 8
nan nan nan 9 7 6 6 5 4 3 2 2 2 2 3 2 2 2 2 3 4 5 6 4 4 3 3 1 4 4 4 4 5 2 1 2 3 4 3 4 2 1 3
nan nan nan 12 13 10 11 10 7 4 4 2 3 3 1 1 1 2 2 0 2 4 6 3 1 1 2 1 1 4 4 5 6 5 6 6 6 6 5 5 5 5 3
14 22 nan 16 13 16 15 14 10 8 6 7 5 4 4 2 2 2 2 2 2 3 5 5 4 4 5 3 2 2 3 4 4 6 5 5 5 5 7 7 6 6 6
9 18 nan 27 20 20 18 14 15 11 8 9 9 7 5 5 5 5 4 5 5 7 8 8 7 4 7 5 4 4 5 3 3 2 4 5 7 6 6 7 8 5 6
14 26 nan 35 29 25 26 21 19 15 14 13 12 11 9 9 8 8 8 9 9 9 8 9 8 6 7 7 8 8 6 4 5 6 5 6 8 9 8 8 7 6 7
22 nan 34 34 32 32 31 26 25 28 24 20 17 14 13 13 16 13 11 13 14 14 15 14 14 12 12 12 12 13 9 9 10 11 11 12 11 10 11 11 12 11 11
11 10 28 29 31 30 31 28 27 33 34 28 22 17 19 19 18 19 18 16 16 17 20 21 19 19 19 19 16 15 13 13 13 16 12 15 20 20 15 16 14 15 16
19 17 20 31 31 33 34 31 32 31 32 31 22 25 26 24 20 19 20 22 19 20 21 23 23 25 27 32 25 nan 17 17 17 17 14 15 19 23 22 18 18 20 17
18 22 24 20 23 34 21 26 29 35 36 33 32 22 33 22 20 22 24 30 22 24 22 23 25 28 31 31 28 nan nan 25 25 20 20 21 22 22 20 nan 27 30 30
19 18 17 18 19 19 29 24 31 34 40 34 38 37 34 38 38 31 30 35 25 23 26 30 36 nan nan nan nan nan nan nan 32 32 25 26 25 31 nan nan nan nan nan
22 20 19 20 18 21 29 28 14 26 35 31 35 37 34 nan 37 36 34 38 36 33 31 32 32 30 nan nan nan nan nan nan nan nan nan 32 29 41 36 nan nan nan nan
27 23 21 17 19 16 16 21 19 28 43 28 36 nan nan 41 nan nan nan nan 35 24 nan nan nan nan nan nan nan nan nan nan nan nan nan nan nan nan nan nan nan nan nan
31 nan 28 25 19 14 16 25 30 32 33 38 41 30 38 29 30 nan nan 46 38 nan nan nan nan nan nan nan nan nan nan nan nan nan nan nan nan nan nan nan nan nan nan
nan 26 25 26 26 22 20 21 25 20 29 nan nan nan nan nan nan 38 nan nan nan nan nan nan nan nan nan nan nan nan nan nan nan nan nan nan nan nan nan nan nan nan nan
nan nan nan nan nan 31 31 29 26 27 26 nan 32 32 nan 31 38 38 nan nan nan nan nan nan nan nan nan nan nan nan nan nan nan nan nan nan nan nan nan nan nan nan nan
nan nan nan nan nan nan nan 32 35 37 36 36 37 nan nan nan nan nan nan nan nan nan nan nan nan nan nan nan nan nan nan nan nan nan nan nan nan nan nan nan nan nan nan
nan nan nan nan nan nan nan nan nan 32 40 nan 43 44 40 38 nan nan nan nan 28 nan nan nan nan nan nan nan nan nan nan nan nan nan nan nan nan nan nan nan nan nan nan
nan nan nan nan nan nan nan nan nan nan nan nan nan 41 43 46 nan 34 nan 38 36 nan nan 42 nan 34 nan nan nan nan nan nan nan nan nan nan nan nan nan nan nan nan nan
Wind_Direction
93 104 107 92 95 97 98 105 113 119 123 119 114 107 93 87 89 91 90 100 101 117 137 133 133 140 153 170 167 180 188 182 190 283 301 304 317 319 340 346 359 338 337
99 93 88 92 89 88 103 113 116 118 124 127 123 125 113 100 99 92 90 93 98 105 111 116 126 146 158 189 190 191 191 186 186 190 243 302 314 314 334 339 340 327 327
nan 96 81 76 95 86 81 97 111 119 128 131 145 145 131 121 107 100 96 101 98 101 111 112 113 119 137 181 195 194 207 234 224 215 200 285 296 295 310 335 336 332 348
nan 77 95 81 74 80 78 78 93 108 125 134 138 129 116 116 111 102 100 95 93 97 95 103 114 130 137 153 163 181 189 215 262 255 247 246 255 281 303 319 335 350 16
nan nan 73 82 83 77 64 71 91 106 128 135 134 132 123 133 143 132 101 90 87 93 89 79 78 105 127 149 167 187 196 224 227 221 249 253 282 298 311 311 303 319 337
nan nan nan 97 98 101 97 84 79 96 115 117 128 129 123 154 202 202 143 140 135 116 91 87 72 62 97 130 174 183 184 214 236 238 224 229 238 278 304 315 330 331 334
nan nan 134 95 71 60 107 111 84 85 99 103 120 118 106 142 115 281 93 221 132 123 116 119 117 131 127 198 226 248 203 206 200 241 238 270 288 303 310 10 344 8 351
nan nan 151 147 137 290 271 148 160 135 114 84 89 110 88 108 59 166 165 217 150 129 141 107 107 103 143 235 246 261 259 267 235 142 106 34 24 0 7 62 72 12 0
nan nan nan 187 207 224 247 227 203 210 208 96 142 118 133 96 79 100 216 209 198 151 126 122 108 78 90 150 244 222 230 258 291 321 331 332 329 339 347 5 30 4 357
nan nan nan 215 208 218 235 237 226 236 243 206 216 223 203 131 194 272 327 131 94 147 139 45 18 172 74 58 221 225 240 245 259 273 288 279 291 313 318 325 331 326 302
202 219 nan 212 218 224 232 247 235 230 246 252 232 222 238 264 239 247 274 306 281 280 273 295 313 231 200 218 176 199 245 261 252 260 282 306 301 294 308 325 321 329 322
309 239 nan 222 245 237 233 240 238 222 225 242 256 251 238 228 240 241 213 234 265 283 292 302 325 292 229 205 219 213 218 248 246 255 285 309 295 304 299 304 317 318 317
293 232 nan 224 226 218 221 230 232 229 225 234 243 247 250 252 239 246 254 260 265 277 270 281 298 299 246 246 222 213 237 269 275 261 271 277 296 297 289 294 282 287 290
331 nan 212 220 220 215 219 224 220 224 228 228 236 246 249 254 261 263 261 269 274 275 275 271 270 269 259 256 254 242 248 249 267 271 282 284 289 291 289 293 296 298 295
294 276 217 216 218 222 223 219 224 239 240 235 237 234 243 250 255 265 266 264 269 269 274 275 274 267 258 260 259 254 247 247 263 261 270 271 258 241 261 270 284 289 290
218 250 236 215 219 225 229 229 235 238 243 238 239 238 247 251 258 262 275 269 269 271 268 269 268 269 265 265 262 nan 250 257 255 259 259 255 261 256 250 254 254 253 273
219 215 223 232 205 224 220 228 231 238 233 242 232 235 245 247 259 257 278 274 273 278 272 261 273 274 267 263 262 nan nan 253 255 256 256 263 260 256 256 nan 262 265 265
236 231 240 238 243 249 217 212 235 245 249 250 248 235 234 239 250 251 245 260 246 283 284 274 275 nan nan nan nan nan nan nan 252 252 264 260 258 257 nan nan nan nan nan
231 231 243 248 253 264 226 231 257 259 239 252 255 248 239 nan 251 242 262 252 254 263 271 266 266 261 nan nan nan nan nan nan nan nan nan 253 256 255 256 nan nan nan nan
245 241 237 247 251 257 250 248 253 275 250 252 249 nan nan 236 nan nan nan nan 249 266 nan nan nan nan nan nan nan nan nan nan nan nan nan nan nan nan nan nan nan nan nan
250 nan 247 246 243 241 251 251 257 262 251 242 238 241 254 256 275 nan nan 261 249 nan nan nan nan nan nan nan nan nan nan nan nan nan nan nan nan nan nan nan nan nan nan
nan 258 259 250 239 243 248 257 250 255 262 nan nan nan nan nan nan 294 nan nan nan nan nan nan nan nan nan nan nan nan nan nan nan nan nan nan nan nan nan nan nan nan nan
nan nan nan nan nan 247 249 256 252 249 258 nan 263 268 nan 265 270 279 nan nan nan nan nan nan nan nan nan nan nan nan nan nan nan nan nan nan nan nan nan nan nan nan nan
nan nan nan nan nan nan nan 245 244 248 254 255 261 nan nan nan nan nan nan nan nan nan nan nan nan nan nan nan nan nan nan nan nan nan nan nan nan nan nan nan nan nan nan
nan nan nan nan nan nan nan nan nan 252 253 nan 261 263 267 276 nan nan nan nan 256 nan nan nan nan nan nan nan nan nan nan nan nan nan nan nan nan nan nan nan nan nan nan
nan nan nan nan nan nan nan nan nan nan nan nan nan 266 272 275 nan 272 nan 252 256 nan nan 255 nan 259 nan nan nan nan nan nan nan nan nan nan nan nan nan nan nan nan nan